Terminal Aerodrome Forecast
Issued by NWS Wichita, KS

Home | Current Version | Previous Version | Graphics & Text | Print | Product List | Glossary On
Versions: 1 2 3 4 5 6 7 8 9 10 11 12 13 14 15 16 17 18 19 20 21 22 23 24 25 26 27
032
FTUS43 KICT 212334
TAFICT
TAF
KICT 212334Z 2200/2224 06015KT P6SM VCSH OVC025
     FM220100 05010KT P6SM -SNPL OVC020
     FM220300 05009KT 4SM -FZRAPL OVC008
      TEMPO 2203/2206 2SM TSPL OVC012CB
     FM220600 04009KT 4SM -FZRAPL OVC008
     FM221200 05007KT 3SM -FZDZ BR OVC005
     FM221600 07006KT P6SM OVC012
     FM222200 14011KT P6SM BKN015=

USA.gov is the U.S. government's official web portal to all federal, state and local government web resources and services.